Overview Statistics Trail Chart Weather Telemetry Raw packets
 

This is the latest recevied weather packets stored in our database for station/object SV9TNF-55. If no packets are shown the sender has not sent any weather packets the latest 10 day(s).

<< 1 2 3 4 5 6 7 >>
Time Temp. Humidity Pressure Rain* Wind** Luminosity Snow
1788622061 18.89° C 66% 1018.1 hPa 0 mm 2.68 m/s, 315° - -
1788621462 18.89° C 66% 1018.3 hPa 0 mm 2.68 m/s, 292° - -
1788620861 18.89° C 66% 1018.1 hPa 0 mm 2.68 m/s, 315° - -
1788620261 19.44° C 65% 1018.1 hPa 0 mm 2.68 m/s, 315° - -
1788619661 19.44° C 65% 1018.1 hPa 0 mm 2.68 m/s, 315° - -
1788619061 19.44° C 64% 1018.1 hPa 0 mm 3.58 m/s, 337° - -
1788618461 20° C 64% 1017.9 hPa 0 mm 2.68 m/s, 337° - -
1788617861 20° C 64% 1018 hPa 0 mm 3.13 m/s, 337° - -
1788617260 20° C 64% 1018 hPa 0 mm 3.13 m/s, 337° - -
1788616660 20° C 63% 1017.9 hPa 0 mm 2.24 m/s, 337° - -
1788616061 20° C 63% 1017.8 hPa 0 mm 2.68 m/s, 337° - -
1788615461 20° C 63% 1017.9 hPa 0 mm 3.58 m/s, 315° - -
1788614860 20° C 63% 1017.7 hPa 0 mm 3.58 m/s, 337° - -
1788614260 20.56° C 62% 1017.7 hPa 0 mm 3.58 m/s, 315° - -
1788613660 20.56° C 62% 1017.7 hPa 0 mm 3.58 m/s, 337° - -
1788613060 20.56° C 61% 1017.7 hPa 0 mm 3.13 m/s, 315° - -
1788612460 20.56° C 60% 1017.6 hPa 0 mm 3.58 m/s, 337° - -
1788611860 20.56° C 61% 1017.7 hPa 0 mm 3.58 m/s, 337° - -
1788611260 21.11° C 60% 1017.6 hPa 0 mm 4.02 m/s, 337° - -
1788610659 20.56° C 61% 1017.7 hPa 0 mm 4.02 m/s, 315° - -
1788610059 20.56° C 64% 1017.6 hPa 0 mm 3.58 m/s, 315° - -
1788609459 20.56° C 64% 1017.6 hPa 0 mm 4.02 m/s, 337° - -
1788608860 20.56° C 64% 1017.6 hPa 0 mm 4.02 m/s, 337° - -
1788608259 20.56° C 63% 1017.6 hPa 0 mm 4.02 m/s, 315° - -
1788607662 21.11° C 61% 1017.7 hPa 0 mm 4.02 m/s, 315° - -

* Rain latest hour (hover to see other rain measurements)
** Current wind speed in m/s (hover to see current wind gust speed)